Date Time,Air Temp,Sky Temp,Clarity,Light Level,Rain Sensor,Readings
2010-07-29 00:00:11,26.1,3.0,23.1,0.1,2.3,111
2010-07-29 00:05:11,26.1,0.5,25.6,0.1,2.3,111
2010-07-29 00:10:11,26.1,-0.2,26.3,0.1,2.3,112
2010-07-29 00:15:11,26.0,-2.5,28.5,0.1,2.3,112
2010-07-29 00:20:11,25.9,-4.3,30.2,0.1,2.3,112
2010-07-29 00:25:11,25.7,-5.1,30.8,0.1,2.3,111
2010-07-29 00:30:11,25.6,-4.9,30.5,0.1,2.3,112
2010-07-29 00:35:11,25.4,-6.1,31.6,0.1,2.3,112
2010-07-29 00:40:11,25.3,-5.9,31.2,0.1,2.3,112
2010-07-29 00:45:11,25.2,-6.0,31.2,0.1,2.3,111
2010-07-29 00:50:11,25.0,-7.3,32.3,0.1,2.3,112
2010-07-29 00:55:11,24.8,-9.7,34.5,0.1,2.3,112
2010-07-29 01:00:11,24.6,-10.1,34.7,0.2,2.3,112
2010-07-29 01:05:11,24.6,-10.0,34.6,0.2,2.3,112
2010-07-29 01:10:11,24.5,-9.9,34.5,0.2,2.3,112
2010-07-29 01:15:11,24.4,-10.2,34.6,0.2,2.3,112
2010-07-29 01:20:11,24.3,-10.2,34.5,0.2,2.3,112
2010-07-29 01:25:11,24.1,-10.2,34.3,0.2,2.3,112
2010-07-29 01:30:11,24.1,-10.2,34.2,0.2,2.3,112
2010-07-29 01:35:11,24.0,-10.5,34.5,0.2,2.3,112
2010-07-29 01:40:11,23.9,-10.8,34.7,0.3,2.3,111
2010-07-29 01:45:11,23.9,-10.8,34.6,0.3,2.3,112
2010-07-29 01:50:11,23.8,-10.9,34.7,0.3,2.3,112
2010-07-29 01:55:11,23.7,-10.9,34.5,0.3,2.3,112
2010-07-29 02:00:11,23.6,-10.9,34.5,0.3,2.3,111
2010-07-29 02:05:11,23.5,-11.0,34.5,0.4,2.3,112
2010-07-29 02:10:11,23.5,-10.9,34.4,0.4,2.3,112
2010-07-29 02:15:11,23.6,-11.0,34.5,0.4,2.3,112
2010-07-29 02:20:11,23.5,-11.0,34.5,0.4,2.3,111
2010-07-29 02:25:11,23.5,-11.0,34.5,0.4,2.3,112
2010-07-29 02:30:11,23.5,-11.1,34.6,0.4,2.2,112
2010-07-29 02:35:11,23.5,-11.1,34.6,0.4,2.3,111
2010-07-29 02:40:11,23.5,-11.0,34.5,0.4,2.3,112
2010-07-29 02:45:11,23.5,-11.0,34.5,0.4,2.3,111
2010-07-29 02:50:11,23.5,-10.9,34.4,0.5,2.3,112
2010-07-29 02:55:11,23.4,-11.1,34.5,0.5,2.3,112
2010-07-29 03:00:11,23.4,-11.0,34.4,0.5,2.3,111
2010-07-29 03:05:11,23.4,-11.2,34.6,0.5,2.3,111
2010-07-29 03:10:11,23.3,-11.0,34.3,0.5,2.3,112
2010-07-29 03:15:11,23.2,-11.1,34.3,0.5,2.3,112
2010-07-29 03:20:11,23.1,-10.5,33.6,0.5,2.3,111
2010-07-29 03:25:11,23.1,-10.5,33.6,0.5,2.3,112
2010-07-29 03:30:11,23.1,-11.0,34.1,0.5,2.3,111
2010-07-29 03:35:11,23.1,-11.0,34.2,0.5,2.3,112
2010-07-29 03:40:11,23.2,-9.9,33.1,0.5,2.3,112
2010-07-29 03:45:11,23.3,-7.5,30.8,0.6,2.3,112
2010-07-29 03:50:11,23.4,-7.2,30.6,0.6,2.3,111
2010-07-29 03:55:11,23.5,-6.4,29.9,0.6,2.3,112
2010-07-29 04:00:11,23.6,-2.3,25.9,0.6,2.3,112
2010-07-29 04:05:11,23.8,1.7,22.1,0.4,2.3,110
2010-07-29 04:10:11,23.9,3.5,20.4,0.5,2.3,112
2010-07-29 04:15:11,21.4,4.3,17.1,0.5,2.3,112
2010-07-29 04:20:11,20.1,4.8,15.3,0.7,2.3,112
2010-07-29 04:25:11,19.7,4.7,15.0,0.8,2.5,111
2010-07-29 04:30:11,19.5,4.9,14.6,1.2,2.3,112
2010-07-29 04:35:11,19.4,4.6,14.8,1.8,2.3,111
2010-07-29 04:40:11,19.4,4.2,15.1,2.9,2.3,112
2010-07-29 04:45:11,19.3,4.7,14.6,4.7,2.3,111
2010-07-29 04:50:11,19.3,4.5,14.9,7.4,2.3,112
2010-07-29 04:55:11,19.3,4.8,14.5,11.0,2.3,112
2010-07-29 05:00:11,19.4,5.9,13.5,14.9,2.3,111
2010-07-29 05:05:11,19.5,5.7,13.8,19.5,2.3,112
2010-07-29 05:10:11,19.5,5.6,13.9,23.2,2.3,111
2010-07-29 05:15:11,19.6,5.6,14.0,26.1,2.3,112
2010-07-29 05:20:11,19.6,5.0,14.6,28.3,2.3,111
2010-07-29 05:25:11,19.6,3.9,15.7,29.6,2.3,111
2010-07-29 05:30:11,19.5,4.1,15.5,30.3,2.3,112
2010-07-29 05:35:11,19.4,4.1,15.4,30.8,2.3,111
2010-07-29 05:40:11,19.4,4.6,14.8,31.1,2.3,112
2010-07-29 05:45:11,19.4,4.8,14.6,31.4,2.3,111
2010-07-29 05:50:11,19.0,4.9,14.1,31.5,2.3,112
2010-07-29 05:55:11,19.4,5.3,14.1,31.6,2.3,112
2010-07-29 06:00:11,19.3,5.1,14.2,31.8,2.3,111
2010-07-29 06:05:11,19.3,5.0,14.3,31.9,2.2,112
2010-07-29 06:10:11,19.4,5.0,14.3,32.0,2.2,112
2010-07-29 06:15:11,19.4,4.9,14.5,32.1,2.3,111
2010-07-29 06:20:11,19.5,4.9,14.6,32.1,2.3,112
2010-07-29 06:25:11,19.6,5.0,14.6,32.2,2.3,112
2010-07-29 06:30:11,19.7,5.3,14.4,32.2,2.3,111
2010-07-29 06:35:11,19.8,5.4,14.4,32.2,2.3,112
2010-07-29 06:40:11,19.9,5.4,14.5,32.3,2.3,111
2010-07-29 06:45:11,20.0,4.9,15.2,32.3,2.3,112
2010-07-29 06:50:11,20.1,4.4,15.7,32.4,2.4,112
2010-07-29 06:55:11,20.3,4.3,16.0,32.4,2.4,112
2010-07-29 07:00:11,20.4,3.7,16.6,32.4,2.3,111
2010-07-29 07:05:11,20.5,4.7,15.8,32.4,2.3,111
2010-07-29 07:10:11,20.6,4.3,16.3,32.4,2.3,112
2010-07-29 07:15:11,20.8,2.7,18.1,32.4,2.3,111
2010-07-29 07:20:11,20.9,2.6,18.3,32.4,2.3,111
2010-07-29 07:25:11,20.9,3.1,17.9,32.4,2.3,111
2010-07-29 07:30:11,20.6,3.9,16.7,32.4,2.3,112
2010-07-29 07:35:11,21.0,4.1,16.9,32.4,2.3,111
2010-07-29 07:40:11,21.1,3.8,17.4,32.4,2.3,112
2010-07-29 07:45:11,21.2,4.5,16.7,32.4,2.3,111
2010-07-29 07:50:11,21.4,4.7,16.7,32.4,2.3,112
2010-07-29 07:55:11,21.6,5.6,15.9,32.5,2.3,112
2010-07-29 08:00:11,21.7,5.9,15.8,32.5,2.3,112
2010-07-29 08:05:11,21.9,5.3,16.5,32.5,2.3,111
2010-07-29 08:10:11,22.0,4.5,17.5,32.5,2.3,112
2010-07-29 08:15:11,22.1,4.3,17.8,32.5,2.3,111
2010-07-29 08:20:11,22.3,5.3,17.0,32.5,2.3,111
2010-07-29 08:25:11,22.7,4.2,18.4,32.5,2.3,112
2010-07-29 08:30:11,22.9,4.7,18.2,32.5,2.3,112
2010-07-29 08:35:11,23.1,4.4,18.7,32.5,2.3,112
2010-07-29 08:40:11,23.2,4.9,18.4,32.5,2.3,112
2010-07-29 08:45:11,25.2,3.2,22.0,32.5,2.3,111
2010-07-29 08:50:11,27.6,4.1,23.5,32.5,1.5,111
2010-07-29 08:55:11,28.5,4.6,23.9,32.5,1.2,112
2010-07-29 09:00:11,28.9,5.5,23.3,32.5,1.4,111
2010-07-29 09:05:11,29.1,4.8,24.4,32.5,1.6,112
2010-07-29 09:10:11,29.4,2.9,26.5,32.5,1.7,111
2010-07-29 09:15:11,29.7,1.1,28.6,32.5,1.9,111
2010-07-29 09:20:11,29.9,0.3,29.6,32.5,2.1,112
2010-07-29 09:25:11,29.9,0.7,29.2,32.5,2.2,111
2010-07-29 09:30:11,30.0,2.2,27.8,32.5,2.2,111
2010-07-29 09:35:11,30.0,3.6,26.4,32.5,2.3,112
2010-07-29 09:40:11,30.0,0.4,29.6,32.5,2.3,112
2010-07-29 09:45:11,30.0,-0.4,30.4,32.5,2.3,111
2010-07-29 09:50:11,30.1,-1.0,31.1,32.5,2.3,112
2010-07-29 09:55:11,30.2,-2.3,32.5,32.5,2.3,111
2010-07-29 10:00:11,30.3,-2.8,33.2,32.5,2.3,112
2010-07-29 10:05:11,30.8,-2.5,33.3,32.5,2.4,112
2010-07-29 10:10:11,31.3,-2.3,33.5,32.5,2.6,112
2010-07-29 10:15:11,31.5,-1.7,33.2,32.6,2.6,111
2010-07-29 10:20:11,31.7,1.6,30.1,32.6,2.3,111
2010-07-29 10:25:11,32.3,6.5,25.8,32.6,2.3,112
2010-07-29 10:30:11,33.0,4.9,28.1,32.6,2.3,111
2010-07-29 10:35:11,33.0,5.7,27.3,32.6,2.3,111
2010-07-29 10:40:11,33.6,9.9,23.7,32.6,2.3,112
2010-07-29 10:45:11,33.4,10.3,23.0,32.5,2.3,111
2010-07-29 10:50:11,32.1,10.0,22.1,32.5,2.3,111
2010-07-29 10:55:11,31.1,10.0,21.1,32.5,2.3,112
2010-07-29 11:00:11,29.2,10.1,19.1,32.5,2.5,112
2010-07-29 11:05:11,26.5,10.0,16.5,32.5,2.1,111
2010-07-29 11:10:11,25.4,10.9,14.4,32.5,1.5,111
2010-07-29 11:15:11,25.0,10.9,14.1,32.5,1.4,112
2010-07-29 11:20:11,25.1,11.1,14.0,32.5,1.4,111
2010-07-29 11:25:11,25.3,10.6,14.7,32.5,1.4,112
2010-07-29 11:30:11,25.2,9.5,15.7,32.5,1.4,111
2010-07-29 11:35:11,25.1,9.5,15.6,32.5,1.2,112
2010-07-29 11:40:11,25.1,10.4,14.7,32.5,1.2,111
2010-07-29 11:45:11,25.3,10.1,15.3,32.6,1.3,112
2010-07-29 11:50:11,25.4,10.1,15.4,32.6,1.3,111
2010-07-29 11:55:11,25.6,10.4,15.2,32.6,1.4,112
2010-07-29 12:00:11,25.8,10.9,14.9,32.6,1.5,111
2010-07-29 12:05:11,26.0,11.5,14.6,32.6,1.6,111
2010-07-29 12:10:11,26.3,11.2,15.2,32.6,1.7,112
2010-07-29 12:15:11,26.6,11.2,15.5,32.6,1.9,111
2010-07-29 12:20:11,26.9,11.4,15.5,32.6,2.0,111
2010-07-29 12:25:11,27.1,11.7,15.4,32.6,2.2,112
2010-07-29 12:30:11,27.4,11.2,16.2,32.6,2.3,111
2010-07-29 12:35:11,27.3,10.9,16.4,32.5,2.3,112
2010-07-29 12:40:11,26.9,11.5,15.4,32.5,2.2,111
2010-07-29 12:45:11,26.5,10.4,16.1,32.5,1.9,112
2010-07-29 12:50:11,25.8,10.1,15.7,32.5,1.6,111
2010-07-29 12:55:11,25.5,10.4,15.2,32.6,1.5,112
2010-07-29 13:00:11,25.6,10.3,15.3,32.6,1.5,112
2010-07-29 13:05:11,25.9,10.4,15.5,32.6,1.5,111
2010-07-29 13:10:11,26.2,11.1,15.1,32.6,1.6,112
2010-07-29 13:15:11,26.5,10.4,16.1,32.6,1.8,111
2010-07-29 13:20:11,26.9,10.7,16.2,32.6,2.0,111
2010-07-29 13:25:11,27.5,10.5,17.0,32.6,2.3,112
2010-07-29 13:30:11,27.9,8.1,19.8,32.6,2.3,111
2010-07-29 13:35:11,31.1,6.7,24.3,32.6,2.5,111
2010-07-29 13:40:11,33.0,10.5,22.5,32.6,2.4,111
2010-07-29 13:45:11,34.9,10.2,24.7,32.6,2.3,112
2010-07-29 13:50:11,34.0,10.6,23.4,32.5,2.3,112
2010-07-29 13:55:11,32.8,10.2,22.6,32.5,2.3,111
2010-07-29 14:00:11,31.9,10.2,21.7,32.5,2.3,112
2010-07-29 14:05:11,31.4,10.1,21.3,32.5,2.3,112
2010-07-29 14:10:11,31.2,10.3,20.8,32.6,2.4,111
2010-07-29 14:15:11,31.8,10.2,21.6,32.6,2.3,112
2010-07-29 14:20:11,33.1,10.1,23.0,32.6,2.3,111
2010-07-29 14:25:11,33.5,9.7,23.9,32.6,2.3,112
2010-07-29 14:30:11,34.3,7.8,26.5,32.6,2.4,111
2010-07-29 14:35:11,33.9,6.6,27.3,32.6,2.4,112
2010-07-29 14:40:11,36.3,8.3,28.0,32.6,2.3,112
2010-07-29 14:45:11,36.4,7.6,28.8,32.6,2.3,111
2010-07-29 14:50:11,35.6,8.9,26.8,32.6,2.3,111
2010-07-29 14:55:11,34.7,10.0,24.7,32.6,2.3,111
2010-07-29 15:00:11,33.8,9.5,24.3,32.6,2.3,112
2010-07-29 15:05:11,33.9,8.7,25.2,32.6,2.4,111
2010-07-29 15:10:11,34.2,7.5,26.6,32.6,2.3,112
2010-07-29 15:15:11,34.3,12.0,22.3,32.6,2.4,111
2010-07-29 15:20:11,34.8,10.5,24.3,32.6,2.4,112
2010-07-29 15:25:11,34.9,8.7,26.1,32.6,2.3,111
2010-07-29 15:30:11,34.4,8.0,26.4,32.6,2.3,111
2010-07-29 15:35:11,35.0,6.4,28.6,32.6,2.4,112
2010-07-29 15:40:11,36.5,3.9,32.6,32.6,2.3,112
2010-07-29 15:45:11,37.4,6.0,31.4,32.6,2.4,111
2010-07-29 15:50:11,37.3,4.8,32.4,32.6,2.3,112
2010-07-29 15:55:11,34.7,9.2,25.5,32.6,2.3,111
2010-07-29 16:00:11,34.3,10.8,23.5,32.6,2.3,111
2010-07-29 16:05:11,33.9,10.5,23.4,32.6,2.3,112
2010-07-29 16:10:11,32.9,10.0,22.9,32.6,2.3,111
2010-07-29 16:15:11,33.6,10.5,23.1,32.6,2.4,112
2010-07-29 16:20:11,34.6,9.9,24.7,32.6,2.4,112
2010-07-29 16:25:11,35.6,7.4,28.3,32.6,2.4,111
2010-07-29 16:30:11,34.9,7.6,27.3,32.6,2.3,111
2010-07-29 16:35:11,33.8,9.0,24.8,32.6,2.3,112
2010-07-29 16:40:11,33.8,9.1,24.7,32.6,2.3,112
2010-07-29 16:45:11,34.0,7.3,26.7,32.6,2.4,111
2010-07-29 16:50:11,34.5,6.4,28.1,32.6,2.3,112
2010-07-29 16:55:11,33.8,8.6,25.3,32.5,2.3,111
2010-07-29 17:00:11,33.2,8.8,24.4,32.6,2.3,112
2010-07-29 17:05:11,32.9,10.3,22.6,32.6,2.4,111
2010-07-29 17:10:11,34.3,5.5,28.8,32.6,2.4,111
2010-07-29 17:15:11,34.5,2.3,32.2,32.6,2.3,112
2010-07-29 17:20:11,33.8,5.4,28.4,32.6,2.3,111
2010-07-29 17:25:11,33.7,7.5,26.2,32.6,2.3,112
2010-07-29 17:30:11,33.8,7.8,26.0,32.6,2.3,111
2010-07-29 17:35:11,34.4,10.1,24.3,32.6,2.4,112
2010-07-29 17:40:11,35.6,5.6,30.1,32.6,2.4,111
2010-07-29 17:45:11,34.9,5.8,29.0,32.5,2.3,111
2010-07-29 17:50:11,33.5,8.1,25.5,32.5,2.3,112
2010-07-29 17:55:11,32.9,10.8,22.1,32.6,2.3,111
2010-07-29 18:00:11,31.4,11.7,19.7,32.6,2.4,112
2010-07-29 18:05:11,33.6,8.9,24.6,32.6,2.4,111
2010-07-29 18:10:11,35.6,4.9,30.6,32.6,2.4,112
2010-07-29 18:15:11,36.3,4.8,31.6,32.6,2.3,111
2010-07-29 18:20:11,36.3,5.7,30.6,32.6,2.4,112
2010-07-29 18:25:11,35.3,4.3,31.0,32.6,2.3,111
2010-07-29 18:30:11,34.6,-0.4,35.0,32.6,2.3,112
2010-07-29 18:35:11,34.0,-0.1,34.1,32.6,2.3,111
2010-07-29 18:40:11,33.8,3.8,30.0,32.6,2.3,112
2010-07-29 18:45:11,33.6,5.0,28.6,32.5,2.3,112
2010-07-29 18:50:11,33.1,6.3,26.8,32.5,2.3,111
2010-07-29 18:55:11,33.2,8.7,24.5,32.6,2.3,112
2010-07-29 19:00:11,33.8,4.6,29.1,32.6,2.3,111
2010-07-29 19:05:11,33.8,-0.3,34.1,32.5,2.3,112
2010-07-29 19:10:11,33.1,1.0,32.1,32.6,2.3,111
2010-07-29 19:15:11,32.9,1.5,31.4,32.6,2.3,111
2010-07-29 19:20:11,33.0,2.2,30.7,32.6,2.3,111
2010-07-29 19:25:11,33.2,2.5,30.7,32.6,2.3,111
2010-07-29 19:30:11,33.6,6.3,27.3,32.6,2.3,112
2010-07-29 19:35:11,33.9,7.4,26.5,32.6,2.3,111
2010-07-29 19:40:11,33.9,4.1,29.8,32.6,2.3,112
2010-07-29 19:45:11,32.9,1.5,31.4,32.5,2.3,111
2010-07-29 19:50:11,33.1,0.2,32.9,32.5,2.3,111
2010-07-29 19:55:11,32.7,0.3,32.4,32.5,2.3,112
2010-07-29 20:00:11,32.4,1.3,31.2,32.5,2.3,111
2010-07-29 20:05:11,32.3,-0.4,32.6,32.5,2.3,111
2010-07-29 20:10:11,32.0,-1.7,33.7,32.5,2.3,112
2010-07-29 20:15:11,31.6,-3.6,35.2,32.4,2.3,111
2010-07-29 20:20:11,31.1,-3.3,34.4,32.4,2.3,112
2010-07-29 20:25:11,30.7,-1.6,32.2,32.3,2.3,111
2010-07-29 20:30:11,30.3,-1.5,31.9,32.3,2.3,112
2010-07-29 20:35:11,30.1,-3.5,33.6,32.2,2.3,112
2010-07-29 20:40:11,29.8,-5.8,35.6,32.0,2.6,111
2010-07-29 20:45:11,29.4,-5.4,34.9,31.9,2.6,112
2010-07-29 20:50:11,29.1,-5.1,34.2,31.6,2.4,111
2010-07-29 20:55:11,28.7,-5.8,34.6,31.3,2.3,111
2010-07-29 21:00:11,28.4,-6.0,34.5,30.8,2.3,112
2010-07-29 21:05:11,28.2,-6.1,34.3,30.2,2.2,112
2010-07-29 21:10:11,28.0,-5.7,33.6,29.1,2.0,111
2010-07-29 21:15:11,27.8,-6.4,34.2,27.3,1.8,112
2010-07-29 21:20:11,27.7,-6.6,34.2,24.6,1.7,111
2010-07-29 21:25:11,27.5,-6.4,33.9,20.7,1.6,112
2010-07-29 21:30:11,27.3,-6.4,33.8,16.0,1.5,112
2010-07-29 21:35:11,27.2,-6.6,33.8,11.4,1.5,112
2010-07-29 21:40:11,27.1,-6.6,33.7,7.5,1.4,112
2010-07-29 21:45:11,27.0,-6.7,33.6,4.6,1.2,112
2010-07-29 21:50:11,26.8,-6.7,33.5,2.8,1.1,113
2010-07-29 21:55:11,26.7,-6.7,33.5,1.7,1.1,112
2010-07-29 22:00:11,26.6,-6.6,33.3,1.0,1.1,111
2010-07-29 22:05:11,26.6,-6.7,33.3,0.6,1.1,112
2010-07-29 22:10:11,26.5,-6.9,33.4,0.4,1.3,112
2010-07-29 22:15:11,26.5,-6.8,33.3,0.2,1.2,112
2010-07-29 22:20:11,26.4,-6.3,32.7,0.1,1.3,112
2010-07-29 22:25:11,26.4,-2.8,29.3,0.1,1.5,111
2010-07-29 22:30:11,26.5,-0.2,26.7,0.1,1.5,113
2010-07-29 22:35:11,26.4,-0.1,26.5,0.1,1.4,111
2010-07-29 22:40:11,26.4,-2.5,28.9,0.1,1.5,112
2010-07-29 22:45:11,26.4,-2.5,28.9,0.1,1.8,112
2010-07-29 22:50:11,26.4,-1.6,28.1,0.1,1.5,111
2010-07-29 22:55:11,26.4,-1.7,28.1,0.1,1.3,112
2010-07-29 23:00:11,26.2,-1.7,28.0,0.1,1.7,112
2010-07-29 23:05:11,26.2,-1.1,27.3,0.1,1.3,111
2010-07-29 23:10:11,26.1,-0.7,26.9,0.1,1.9,112
2010-07-29 23:15:11,26.2,0.0,26.2,0.1,2.2,112
2010-07-29 23:20:11,26.2,0.3,25.9,0.1,2.2,111
2010-07-29 23:25:11,26.2,0.5,25.7,0.1,2.2,111
2010-07-29 23:30:11,26.2,0.6,25.7,0.1,2.3,111
2010-07-29 23:35:11,26.3,-0.4,26.6,0.1,2.2,112
2010-07-29 23:40:11,26.3,-0.2,26.5,0.1,2.2,111
2010-07-29 23:45:11,26.3,-0.5,26.9,0.1,2.1,112
2010-07-29 23:50:11,26.3,-1.9,28.3,0.1,1.8,112
2010-07-29 23:55:11,26.6,-2.7,29.3,0.1,2.1,112
